Flag for Switzerland Weather past 2 weeks in Renens, Vaud, Switzerland

Now
62 °F

Overcast.


Feels Like: 62 °F
Forecast: 49 / 67 °F
Wind: 1 mph from Southeast

Location: Aigle

Current Time: Oct 20, 2014 at 8:47:34 PM

Latest Report: Oct 20, 2014 at 8:00 PM


Visibility: 19 mi

Pressure: 30.04 "Hg

Humidity: 74%

Dew point: 54 °F

Location of RenensLocation

Historic Weather in Renens — Graph

°F

Renens temperature yesterday

Maximum temperature yesterday: 69 °F (at 4:00 PM)
Minimum temperature yesterday: 43 °F (at 8:00 AM)
Average temperature yesterday: 56 °F

Past Weeks' High & Low Weather Summary

 TemperatureHumidityPressure
High76 °F (Oct 9, 12:00 PM)98% (Oct 6, 6:00 AM)30.30 "Hg (Oct 6, 6:00 AM)
Low43 °F (Oct 19, 8:00 AM)31% (Oct 9, 11:00 AM)29.76 "Hg (Oct 13, 5:00 AM)
Average60 °F81%29.95 "Hg
* Reported Oct 5 7:00 PM — Oct 20 7:00 PM, Renens, Weather by CustomWeather, © 2014

Note: Actual official high and low records may vary slightly from our data, if they occured in-between our weather recording intervals... More about our weather records

Advertising

Renens weather history for previous 24 hours

 ConditionsComfort  
Time TempWeatherWind HumidityBarometerVisibility
7:00 PM
Oct 20
63 °FMild.2 mph81%30.03 "HgN/A
6:00 PM64 °FMild.1 mph87%30.03 "HgN/A
5:00 PM67 °FOvercast.2 mph69%30.04 "Hg22 mi
4:00 PM69 °FMild.3 mph61%30.04 "HgN/A
3:00 PM69 °FMild.3 mph60%30.07 "HgN/A
2:00 PM68 °FMild.7 mph59%30.11 "HgN/A
1:00 PM65 °FMild.7 mph67%30.13 "HgN/A
12:00 PM67 °FMild.6 mph51%30.14 "HgN/A
11:00 AM65 °FPassing clouds.10 mph49%30.17 "Hg22 mi
10:00 AM63 °FMild.10 mph50%30.18 "HgN/A
9:00 AM57 °FCool.10 mph65%30.20 "HgN/A
8:00 AM57 °FPassing clouds.7 mph64%30.20 "Hg19 mi
7:00 AM60 °FRefreshingly cool.7 mph58%30.20 "HgN/A
5:00 AM57 °FCool.2 mph69%30.24 "HgN/A
4:00 AM57 °FCool.6 mph69%30.24 "HgN/A
3:00 AM58 °FCool.3 mph69%30.24 "HgN/A
2:00 AM60 °FCool.8 mph65%30.24 "HgN/A
1:00 AM61 °FCool.10 mph65%30.23 "HgN/A
12:00 AM57 °FCool.6 mph77%30.25 "HgN/A
11:00 PM
Oct 19
58 °FCool.2 mph72%30.24 "HgN/A
10:00 PM55 °FCool.5 mph87%30.25 "HgN/A
9:00 PM55 °FCool.3 mph89%30.25 "HgN/A
8:00 PM57 °FCool.5 mph85%30.24 "HgN/A
Weather by CustomWeather, © 2014

See weather overviewHow to use our weather pages